User: anonymous   Login
Location: Davayat
(45.9471°N, 3.1105°E)
Time: 03:16:00
(UTC+00:00)
Language:

deb Delta 139 - Orbit

View from above orbital plane
View from above orbital plane
View from above satellite
View from above satellite

Ground track
Ground track

The orbit data is extracted from the following two-line orbital elements,

1 12279U 78026DX  21165.59935555  .00002358  00000-0  37379-3 0  9995
2 12279  98.8041  51.7347 0036471 245.6052 114.1345 14.72866518 94803
Epoch (UTC): 14 June 2021 14:23:04
Eccentricity: 0.0036471
inclination: 98.8041°
perigee height: 626 km
apogee height: 677 km
right ascension of ascending node: 51.7347°
argument of perigee: 245.6052°
revolutions per day: 14.72866518
mean anomaly at epoch: 114.1345°
orbit number at epoch: 9480

The dashed part of the orbit path shows where the satellite is in the earth's shadow,  

DLR